Regional Weather Roundup
Issued by NWS

Home | Current Version | Previous Version | Text Only | Print | Product List | Glossary Off
Versions: 1 2 3 4 5 6 7 8 9 10 11 12 13 14 15 16 17 18 19 20 21 22 23 24 25 26 27 28 29 30 31 32 33 34 35 36 37 38 39 40 41 42 43 44 45 46 47 48 49 50

534
ASUS45 KCYS 200710
RWRWY

WYOMING REGIONAL WEATHER ROUNDUP
NATIONAL WEATHER SERVICE CHEYENNE WY
1200 AM MST SAT JAN 20 2018

NOTE:  "FAIR" INDICATES FEW OR NO CLOUDS BELOW 12,000 FEET
WITH NO SIGNIFICANT WEATHER AND/OR OBSTRUCTIONS TO VISIBILITY.

WYZ001-200800-
YELLOWSTONE NATIONAL PARK

CITY           SKY/WX    TMP DP  RH WIND       PRES   REMARKS
LK YELLOWSTONE   N/A     18  16  92 CALM      29.82R
W YELLOWSTONE  NOT AVBL

$$
WYZ002>013-054>058-071-098>099-200800-
NORTHERN WYOMING

CITY           SKY/WX    TMP DP  RH WIND       PRES   REMARKS
JACKSON        CLOUDY    24  17  74 SW7       29.83F WCI  16
CODY           FLURRIES  29  27  92 NE3       29.84R
GREYBULL       CLOUDY    34  29  82 NW18      29.80S WCI  23
WORLAND        FLURRIES  31  31 100 W5        29.82R WCI  26
SHERIDAN       LGT SNOW  33  32  96 NW9       29.84S FOG     WCI  25
BUFFALO        LGT SNOW  31  28  89 N14       29.81R VSB 1   WCI  21
GILLETTE       LGT SNOW  33  32  96 N5        29.80S VSB 1   WCI  29
HULETT         LGT SNOW  34  32  93 MISG      29.81R VSB 1
NEWCASTLE      FAIR      34  28  80 N7        29.80S WCI  28

$$
WYZ014>020-022>026-101>103-200800-
CENTRAL WYOMING

CITY           SKY/WX    TMP DP  RH WIND       PRES   REMARKS
BIG PINEY      CLOUDY    25  17  72 NW3       29.85S
PINEDALE       CLOUDY    25  19  80 W8        29.84S WCI  16
DUBOIS         CLOUDY    27  14  59 N6        29.77R WCI  20
LANDER         CLOUDY    35  21  56 CALM      29.77R
RIVERTON       CLOUDY    32  27  81 N6        29.78R WCI  26
CASPER         CLOUDY    32  29  88 NW5       29.77R WCI  27
DOUGLAS        FAIR      28  25  88 N8        29.77R WCI  20

$$
WYZ021-027>030-104>119-200800-
SOUTHERN WYOMING

CITY           SKY/WX    TMP DP  RH WIND       PRES   REMARKS
EVANSTON       CLOUDY    23  22  96 NE8       29.87F FOG     WCI  14
FORT BRIDGER   LGT SNOW  25  25 100 NW9       29.91  WCI  15
ROCK SPRINGS   CLOUDY    27  22  81 W12       29.86S WCI  17
DIXON            N/A     35  22  59 N5        29.85S WCI  31
RAWLINS        FAIR      35  21  56 W21G29    29.80R WCI  24
SARATOGA       FAIR      37  21  52 SW16G23   29.79S WCI  28
LARAMIE        FAIR      28  16  60 S9        29.79S WCI  19
CHEYENNE       FAIR      33  17  51 CALM      29.77S
TORRINGTON     FAIR      33  29  85 NE5       29.74S WCI  29

$$




USA.gov is the U.S. government's official web portal to all federal, state and local government web resources and services.